Location: ??????
(41.3794°N, 22.5014°E)
Time: 21:07:44
(UTC+00:00)

Meteor 1-4 Rocket - Pass Details

Date: 30 November 2020
Orbit: 449 x 500 km, 81.2° (Epoch: 18 January)

Event Time Altitude Azimuth Distance (km) Brightness Sun altitude
Rises 16:22:11 0° 193° (SSW) 2,530 6.6 -14.8°
Reaches altitude 10° 16:24:18 10° 195° (SSW) 1,647 5.7 -15.2°
Maximum altitude 16:27:53 71° 280° (W) 504 2.7 -15.8°
Drops below altitude 10° 16:31:27 10° 5° (N) 1,631 5.0 -16.5°
Enters shadow 16:31:48 - 6° (N) 1,778 5.2 -16.5°
